ALPHASAT

Last updated on May 23, 2019, 3:05 a.m. UTC

1 39215U 13038A   19142.37271687  .00000128  00000-0  00000+0 0  9993
2 39215   2.2119  23.2504 0002253  51.0375 324.4559  1.00272975 21374
UTC
Height (km)
Latitude
Longitude
Inclination
Orbital Period
UTC large
Height (km)
Speed (km/s)
/
Latitude / Longitude
Inclination (degrees)
Orbital Period (minutes)
Azimuth
Elevation
Range (km)
Doppler Factor
iOS Compass Heading
iOS Angle

Next 30 passes for location: Hong Kong

Rise time Rise Azimuth (degrees) Set time Set Azimuth (degrees) Duration Max altitude (degrees)

No matching passes for this satellites